Regional Weather Roundup
Issued by NWS

Home | Current Version | Previous Version | Graphics & Text | Print | Product List | Glossary On
Versions: 1 2 3 4 5 6 7 8 9 10 11 12 13 14 15 16 17 18 19 20 21 22 23 24 25 26 27 28 29 30 31 32 33 34 35 36 37 38 39 40 41 42 43 44 45 46 47 48 49 50
000
ASUS45 KBOU 032007
RWRCO

WEATHER ROUNDUP FOR COLORADO
NATIONAL WEATHER SERVICE DENVER/BOULDER CO
200 PM MDT SUN MAY 03 2015

NOTE: "FAIR" INDICATES FEW OR NO CLOUDS BELOW 12000 FEET WITH NO
SIGNIFICANT WEATHER AND/OR OBSTRUCTIONS TO VISIBILITY.

COZ001>005-013-030-031-032100-
...NORTHWEST COLORADO...

CITY           SKY/WX    TMP DP  RH WIND       PRES   REMARKS
CRAIG          MOSUNNY   68  36  30 W8        30.00F
HAYDEN         PTSUNNY   64  32  29 W14       30.02S
MEEKER         CLOUDY    61  37  41 E8        30.03F
MOUNT WERNER   NOT AVBL
STEAMBOAT SPGS PTSUNNY   62  33  33 SW9       30.03S
WALDEN         CLOUDY    61  25  25 W13G22    30.08S
$$

COZ006>008-011-032100-
...WEST CENTRAL VALLEYS...

CITY           SKY/WX    TMP DP  RH WIND       PRES   REMARKS
GRAND JUNCTION PTSUNNY   74  32  21 NW5       29.93F
MONTROSE       LGT RAIN  66  36  32 S7G30     30.03S
EAGLE          PTSUNNY   70  30  23 SW22G31   30.01F
RIFLE          PTSUNNY   76  27  16 W13G23    29.95F
DELTA          CLOUDY    74  32  20 W3        29.98F
NUCLA          CLOUDY    70  32  24 W7        30.06F THUNDER
$$

COZ017>023-064>068-032100-
...SOUTHWEST COLORADO...

CITY           SKY/WX    TMP DP  RH WIND       PRES   REMARKS
DURANGO        MOSUNNY   66  31  27 W8        30.06F
CORTEZ         SUNNY     70  32  24 MISG      30.03F
PAGOSA SPRINGS CLOUDY    63  31  30 N12G22    30.12R
TELLURIDE      PTSUNNY   52  36  54 SE9       30.21F THUNDER
WOLF CREEK PAS NOT AVBL
$$

COZ009-010-012-014-032>034-037-058>063-032100-
...CENTRAL COLORADO...

CITY           SKY/WX    TMP DP  RH WIND       PRES   REMARKS
ASPEN          CLOUDY    64  28  25 NW10G21   30.07F
BUENA VISTA    NOT AVBL
COPPER MTN     PTSUNNY   45  25  45 S9        30.31F
BERTHOUD PASS  FAIR      37  32  81 MISG      30.35S THUNDER
COTTONWOOD PAS CLOUDY    54  19  26 SE13      30.20F THUNDER
GUNNISON       PTSUNNY   61  28  29 NW15G23   30.12S
KREMMLING      CLOUDY    59  30  33 N13G20    30.08S
LEADVILLE      CLOUDY    51  20  29 N5G22     30.19S
MONARCH PASS   CLOUDY    37  27  65 N16G22    30.42F
SALIDA         CLOUDY    65  28  24 S12G18    30.15S
SUNLIGHT       CLOUDY    46  30  53 NW3       30.28F
WILKERSON PASS CLOUDY    48  19  32 S6        30.31S
$$

COZ069>075-032100-
...SAN LUIS VALLEY/SANGRE DE CRISTO MOUNTAINS...

CITY           SKY/WX    TMP DP  RH WIND       PRES   REMARKS
ALAMOSA        PTSUNNY   65  29  25 W13       30.08F
LA VETA PASS   CLOUDY    45  32  61 MISG      30.25S
SAGUACHE       PTSUNNY   59  30  33 N14G21    30.12F
$$

COZ035-036-038>040-032100-
...NORTHERN COLORADO FRONT RANGE...

CITY           SKY/WX    TMP DP  RH WIND       PRES   REMARKS
DENVER INTL AP PTSUNNY   69  39  33 E12       29.97F
DMNS CITY PARK   N/A     68  35  29 SE9G17    29.97F
AURORA         PTSUNNY   71  37  28 NE8       29.99S
FRONT RANGE AP PTSUNNY   72  39  30 NE8       29.98F
ERIE MUNI ARPT CLOUDY    75  34  22 E13       29.94S
BOULDER MUN AP CLOUDY    72  34  25 E7        29.95R
CENTENNIAL     CLOUDY    68  35  29 NE9       29.99S
BROOMFIELD     PTSUNNY   70  36  28 SE15G23   29.97F
FORT COLLINS   PTSUNNY   66  39  37 NW9       29.96R
LONGMONT       PTSUNNY   76  36  23 E13       29.96S
$$

COZ041-046-047-076>085-087-088-032100-
...PIKES PEAK/PALMER DIVIDE AND SOUTHERN FOOTHILLS...

CITY           SKY/WX    TMP DP  RH WIND       PRES   REMARKS
COLO. SPRINGS  CLOUDY    71  26  18 NW6       30.01F
A. F. ACADEMY  CLOUDY    67  30  24 N7        30.04F
ELLICOTT       TSTM     N/A N/A N/A VRB7G18   30.03R
FALCON         CLOUDY    67  22  18 CALM      30.06S
FORT CARSON    CLOUDY    71  32  23 E10G18    29.99R
LIMON          MOSUNNY   77  32  19 NE8       29.96F
MONUMENT HILL  PTSUNNY   64  30  27 SE8G21    30.05F
TRINIDAD       PTSUNNY   73  27  18 CALM      29.96F
$$

COZ042>045-048>051-090-091-032100-
...NORTHEAST COLORADO...

CITY           SKY/WX    TMP DP  RH WIND       PRES   REMARKS
GREELEY ARPT   MOSUNNY   73  39  29 E12G18    29.94S
AKRON          SUNNY     77  41  27 N13       29.94F
BURLINGTON     PTSUNNY   80  35  19 VRB5      29.91S
WRAY           SUNNY     83  35  17 N13G18    29.88F
STERLING       SUNNY     75  45  33 NE12G20   29.92S
HOLYOKE        NOT AVBL
FORT MORGAN    SUNNY     77 -27   1 NE6       29.94S
$$

COZ086-089-092>099-032100-
...SOUTHEAST COLORADO...

CITY           SKY/WX    TMP DP  RH WIND       PRES   REMARKS
PUEBLO         PTSUNNY   80  31  16 SW8       29.89F
LA JUNTA       MOSUNNY   84  36  18 SE10      29.87F
LAMAR          PTSUNNY   82  39  21 NW6       29.85F
SPRINGFIELD      N/A     81  37  20 N9        29.87F
$$


USA.gov is the U.S. government's official web portal to all federal, state and local government web resources and services.